TimeCDT,TemperatureF,Dew PointF,Humidity,Sea Level PressureIn,VisibilityMPH,Wind Direction,Wind SpeedMPH,Gust SpeedMPH,PrecipitationIn,Events,Conditions,WindDirDegrees,DateUTC
12:53 AM,42.1,30.0,62,30.00,10.0,NNW,10.4,-,N/A,,Clear,330,2012-10-02 05:53:00
1:53 AM,39.9,28.9,65,30.00,10.0,NNW,8.1,-,N/A,,Clear,340,2012-10-02 06:53:00
2:53 AM,45.0,28.9,53,29.99,10.0,North,5.8,-,N/A,,Clear,350,2012-10-02 07:53:00
4:53 AM,32.0,26.1,79,29.99,10.0,WNW,4.6,-,N/A,,Clear,300,2012-10-02 09:53:00
5:53 AM,33.1,27.0,78,29.99,10.0,WNW,3.5,-,N/A,,Clear,290,2012-10-02 10:53:00
6:53 AM,32.0,26.1,79,30.00,10.0,WNW,4.6,-,N/A,,Clear,300,2012-10-02 11:53:00
7:53 AM,32.0,26.1,79,30.01,10.0,Calm,Calm,-,N/A,,Clear,0,2012-10-02 12:53:00
8:53 AM,44.1,32.0,63,30.01,10.0,Calm,Calm,-,N/A,,Clear,0,2012-10-02 13:53:00
9:53 AM,55.0,34.0,45,30.00,10.0,ESE,3.5,-,N/A,,Clear,120,2012-10-02 14:53:00
10:53 AM,61.0,39.0,44,29.99,10.0,SSW,4.6,-,N/A,,Clear,210,2012-10-02 15:53:00
11:53 AM,66.0,37.9,36,29.97,10.0,South,5.8,-,N/A,,Clear,190,2012-10-02 16:53:00
12:53 PM,69.1,34.0,27,29.94,10.0,SSW,9.2,-,N/A,,Clear,200,2012-10-02 17:53:00
1:53 PM,71.1,30.9,23,29.91,10.0,South,6.9,-,N/A,,Clear,180,2012-10-02 18:53:00
2:53 PM,72.0,28.9,20,29.88,10.0,SSW,6.9,-,N/A,,Clear,210,2012-10-02 19:53:00
3:53 PM,73.0,25.0,17,29.88,10.0,SSW,5.8,-,N/A,,Clear,200,2012-10-02 20:53:00
4:53 PM,73.0,25.0,17,29.87,10.0,SSW,11.5,-,N/A,,Clear,210,2012-10-02 21:53:00
5:53 PM,72.0,24.1,17,29.87,10.0,South,6.9,-,N/A,,Clear,190,2012-10-02 22:53:00
7:53 PM,55.0,30.0,38,29.88,10.0,SSE,6.9,-,N/A,,Clear,160,2012-10-03 00:53:00
8:53 PM,51.1,30.9,46,29.88,10.0,South,5.8,-,N/A,,Clear,170,2012-10-03 01:53:00
9:53 PM,48.9,30.9,50,29.90,9.0,Calm,Calm,-,N/A,,Clear,0,2012-10-03 02:53:00
10:53 PM,46.9,30.9,54,29.90,9.0,Calm,Calm,-,N/A,,Clear,0,2012-10-03 03:53:00
11:53 PM,43.0,33.1,68,29.90,10.0,SE,3.5,-,N/A,,Clear,130,2012-10-03 04:53:00